Theta_e
343 344 345 345 346 345 344 344 343 343 343 342 342 342 341 342 342 343 345 344 347 346 346 346 346 348 350 353 354 355 356 357 358 358 357 357 357 358 358 357 356 356 357 357 357 358 358 356 356 356 357 358 358 357 358 358 355 352 351 349 346 345 346 346 345 346 350 347 346 350 354 356 357 358 359 360 361 364 360 365 366 365 364 365 365
343 344 345 345 345 345 345 344 344 343 342 341 342 342 342 342 342 344 343 345 347 346 346 347 347 347 349 351 353 355 355 356 357 358 357 356 356 356 357 357 357 356 356 356 357 357 358 357 357 356 356 357 357 356 358 358 357 354 352 350 349 348 347 349 347 347 347 351 353 354 354 356 357 358 358 358 360 362 362 363 364 365 364 365 366
343 344 344 344 344 345 345 345 344 343 341 341 340 341 342 342 343 342 342 344 348 348 347 347 348 347 348 350 352 354 355 356 357 357 357 357 356 356 357 357 357 356 355 356 356 357 357 357 357 357 356 356 356 356 356 356 356 356 354 352 352 352 350 349 349 347 347 351 349 351 356 357 357 360 362 359 361 361 361 363 361 362 364 364 365
342 343 344 344 344 344 344 345 344 343 342 341 340 340 341 342 345 342 342 342 346 349 349 348 348 348 347 349 351 353 354 355 356 357 357 357 357 357 357 357 357 357 357 356 356 356 356 356 356 357 357 356 356 357 356 356 356 356 356 355 355 355 355 351 350 351 349 349 352 353 356 355 359 357 357 359 359 361 361 362 363 363 363 364 366
342 342 343 343 344 344 343 343 343 343 343 342 341 340 340 341 343 344 343 342 343 346 350 350 348 348 348 348 349 351 353 354 355 355 357 357 357 357 357 357 357 357 357 357 358 357 356 355 356 357 357 356 356 355 355 355 356 355 355 356 355 355 355 354 354 351 351 350 352 352 349 351 354 355 357 359 361 361 362 362 360 361 363 363 364
342 341 342 342 343 344 344 343 343 343 343 343 343 342 341 341 341 343 344 343 343 343 346 348 348 348 348 349 349 350 352 354 354 355 356 357 357 357 357 357 357 357 357 357 357 358 356 356 356 357 356 356 356 357 357 356 355 354 355 355 355 354 355 354 354 353 352 352 352 352 354 353 356 357 358 358 358 358 359 361 362 362 361 364 363
342 341 342 342 343 343 344 344 344 343 344 344 344 344 343 342 341 341 344 344 344 343 343 346 349 348 348 349 349 350 351 353 353 354 355 356 357 357 357 357 357 357 357 357 357 357 357 357 357 356 356 356 356 356 357 356 355 355 356 356 355 354 353 354 353 352 352 351 351 352 352 352 352 354 359 355 356 357 355 354 356 361 361 360 362
341 342 342 342 343 343 344 345 345 345 345 346 345 344 344 343 343 343 343 343 343 344 344 344 346 348 348 348 348 350 351 352 353 354 355 355 356 356 357 357 356 357 357 358 358 357 357 357 357 357 357 357 357 357 357 356 357 355 357 356 356 355 354 354 353 352 351 350 350 351 352 352 353 353 353 354 356 357 354 354 353 357 361 360 360
341 341 342 342 343 345 346 346 347 347 347 347 346 346 345 345 345 344 344 344 344 344 345 345 345 346 348 348 348 348 349 350 352 353 354 355 356 356 356 356 356 356 356 356 357 357 358 358 358 358 359 361 359 358 358 358 357 356 357 357 356 355 355 354 354 353 352 351 351 351 350 351 352 351 353 353 355 355 354 352 351 353 356 356 360
341 341 341 343 344 346 347 348 348 348 347 347 347 347 347 347 345 345 344 344 345 346 346 347 346 346 347 348 349 348 348 349 348 342 344 353 355 355 356 356 357 356 356 356 356 356 357 357 358 362 359 356 355 353 349 351 356 357 358 357 356 355 354 354 353 352 352 351 350 351 350 350 352 353 352 354 356 353 352 353 352 356 354 357 357
343 342 342 344 345 346 347 348 348 348 348 348 348 348 348 348 347 346 346 345 345 346 346 346 346 347 347 347 348 349 349 349 340 333 335 339 351 354 354 355 356 357 356 356 355 356 356 357 358 360 362 362 357 349 347 345 346 348 350 357 358 357 355 353 353 353 352 351 353 351 350 351 353 354 353 354 355 355 354 354 353 353 353 350 349
343 343 344 345 346 346 347 348 348 348 349 349 349 349 349 348 348 347 346 345 346 346 345 345 346 347 347 347 348 349 350 343 333 331 332 333 341 354 355 355 355 356 356 356 356 356 356 356 356 356 357 359 360 361 355 348 343 343 344 345 349 351 352 356 355 354 353 352 352 352 352 352 353 354 353 352 355 354 351 349 349 352 352 350 349
345 345 345 346 346 347 348 348 348 349 349 350 350 350 349 349 348 347 346 347 347 346 345 345 346 347 347 347 347 348 350 339 331 330 331 331 332 344 354 355 354 355 355 356 356 356 357 356 355 356 355 359 360 359 359 359 348 341 341 343 345 344 339 339 344 357 359 356 353 354 353 354 353 355 356 356 355 355 353 350 351 351 351 352 353
346 346 347 347 347 348 348 348 348 349 350 350 350 350 349 349 349 349 349 349 347 346 346 346 346 347 347 347 348 348 349 340 330 327 328 328 330 336 353 354 354 354 355 356 355 356 356 356 355 355 356 357 359 360 359 359 358 357 354 352 352 353 346 337 336 338 346 356 357 354 357 358 355 356 359 356 353 355 354 353 354 353 352 351 354
348 348 348 348 349 349 349 349 349 350 350 351 350 350 350 350 350 350 349 348 348 347 347 346 347 347 347 348 348 348 349 336 327 325 324 324 327 332 351 354 354 354 355 355 356 356 356 356 356 355 356 356 356 357 358 358 358 357 357 356 355 356 356 355 352 350 349 350 353 356 358 361 360 360 361 358 357 358 359 358 356 355 353 352 353
350 350 350 350 350 351 350 350 350 351 351 351 351 351 351 350 350 350 350 350 350 349 350 349 348 348 348 349 348 348 349 332 326 324 323 323 325 338 348 351 353 353 354 354 355 356 356 356 355 356 355 355 354 345 354 357 356 355 355 355 356 356 356 355 344 346 357 355 354 355 357 359 348 360 360 358 358 358 356 355 354 353 350 349 348
347 350 354 353 353 353 353 352 352 352 353 352 351 351 351 351 352 353 351 351 350 349 349 349 350 350 350 350 349 349 350 337 324 322 321 321 325 342 346 349 351 352 352 354 354 355 355 356 356 355 356 355 347 334 336 353 356 354 354 353 354 353 354 357 340 332 332 331 332 334 334 334 333 331 330 333 350 352 354 351 350 350 347 345 347
348 350 350 352 354 356 356 355 354 354 353 352 351 351 351 351 351 350 350 351 350 350 350 350 351 351 350 350 350 350 350 342 324 319 319 319 329 343 346 348 349 351 352 353 354 354 355 358 359 356 355 355 339 331 330 344 354 354 354 352 352 352 353 354 356 353 330 326 327 329 330 330 331 331 331 328 328 344 354 350 353 352 349 348 347
345 347 349 351 353 354 355 355 355 354 353 352 351 350 350 350 351 350 349 348 349 352 352 351 351 352 351 351 350 350 351 344 324 319 318 317 328 345 347 348 348 349 350 351 353 354 354 356 357 353 353 349 333 330 328 340 352 353 354 352 351 351 352 356 356 356 355 353 353 349 347 342 344 345 347 334 331 343 353 354 356 354 352 351 349
340 344 345 350 352 352 353 354 353 353 352 352 352 351 352 352 351 350 350 349 349 350 351 352 351 351 352 352 352 351 351 352 344 319 317 315 320 345 348 347 347 348 349 350 350 352 353 353 351 336 331 331 329 326 324 325 349 353 354 351 350 350 354 356 356 356 355 354 356 358 356 358 356 353 352 349 341 345 350 354 356 357 355 354 352
338 340 343 345 347 352 352 352 352 352 353 352 352 353 353 353 353 351 349 350 351 351 351 351 351 351 352 352 353 353 353 352 350 321 316 314 316 328 348 348 349 349 349 349 351 351 351 352 354 340 327 324 323 322 320 319 329 352 354 352 352 351 351 356 354 357 357 355 354 355 356 357 356 355 355 354 351 348 346 348 354 357 356 354 352
337 338 340 342 346 349 353 355 353 352 353 353 352 353 355 356 355 354 353 352 352 351 352 351 351 351 352 352 353 353 352 343 353 328 317 313 313 318 343 349 349 350 349 349 350 350 351 352 353 343 327 323 321 319 317 318 319 342 351 332 331 331 347 353 355 355 356 357 356 355 355 355 354 353 352 352 352 351 350 350 350 355 358 358 356
335 337 339 341 345 349 352 355 357 355 353 353 353 353 355 356 356 356 355 354 352 351 351 351 351 350 351 352 353 354 355 352 334 345 321 313 312 313 323 338 332 350 350 349 349 350 352 353 353 343 326 320 318 317 317 317 321 331 325 324 324 327 338 349 352 352 352 353 353 353 354 355 354 354 353 353 354 355 355 355 355 354 356 357 359
334 335 338 341 344 347 350 352 355 358 358 356 355 354 356 357 356 356 355 354 352 351 351 351 351 350 349 350 352 353 355 355 339 330 334 315 312 311 314 320 327 344 350 350 351 352 352 352 348 330 321 315 314 316 317 318 328 319 317 320 323 330 341 345 346 349 349 349 350 351 352 354 354 355 355 357 357 358 357 357 356 355 354 355 356
331 334 336 339 342 345 347 349 351 354 358 359 357 356 356 357 355 356 355 354 353 352 351 351 350 350 349 349 350 352 354 354 355 339 326 321 314 312 312 315 319 323 344 351 351 352 339 330 327 322 321 317 316 317 318 317 314 316 317 319 333 340 341 343 345 348 348 348 349 351 352 353 354 355 359 359 357 353 354 354 355 355 355 354 354
330 333 336 339 340 342 344 346 350 354 356 359 359 359 358 357 356 356 355 354 353 352 352 351 350 350 350 350 351 352 353 354 354 353 335 328 320 314 313 314 317 319 330 345 336 334 330 325 323 323 323 325 333 336 338 339 322 318 320 326 335 341 344 345 346 347 347 350 350 350 352 355 355 357 356 353 352 351 352 351 350 349 348 346 344
330 332 335 337 339 341 342 346 349 352 355 357 359 360 359 358 357 355 355 354 353 352 352 351 351 350 350 350 351 352 352 353 353 354 352 346 340 331 320 321 316 318 327 338 338 341 339 338 338 329 332 330 332 332 334 338 338 332 331 334 339 342 345 347 349 349 348 350 350 352 354 356 356 353 350 352 353 354 353 352 350 349 348 348 347
328 331 334 337 337 339 341 345 347 347 350 354 356 358 358 358 357 355 354 354 353 352 352 351 350 350 350 351 351 351 351 352 353 353 353 350 346 343 333 329 328 328 329 333 340 345 347 340 337 345 344 345 343 343 344 346 346 344 342 339 339 341 343 347 348 349 350 351 351 353 353 352 350 351 352 351 353 352 346 347 348 346 343 344 344
328 330 334 335 334 336 338 340 342 344 347 352 356 358 358 357 357 357 359 358 357 355 354 353 353 354 353 352 351 350 350 351 352 336 351 334 343 346 341 336 335 335 329 325 340 343 344 347 347 346 346 345 345 346 346 346 345 346 347 345 342 342 342 342 343 345 347 348 348 350 350 351 351 351 350 348 346 344 342 343 344 345 341 342 342
327 330 331 332 332 333 334 335 338 341 344 346 352 356 349 334 346 358 357 342 335 331 331 353 356 355 354 355 355 352 351 353 334 323 321 318 318 323 324 322 321 331 327 319 331 342 342 343 345 345 345 346 347 347 347 347 347 347 346 338 343 343 342 342 343 345 347 347 349 349 349 349 347 346 346 344 343 342 340 336 341 341 338 336 338
325 325 327 328 329 331 332 334 336 339 343 345 348 352 356 353 318 319 332 340 329 320 315 318 322 331 350 355 349 332 332 329 325 316 314 312 313 313 313 313 313 314 315 327 335 340 342 342 343 344 345 346 346 347 348 348 347 348 349 348 346 343 340 343 344 343 344 346 347 348 348 345 346 345 343 343 343 341 340 339 339 337 338 337 336
322 322 323 326 329 331 332 331 332 332 335 340 343 348 354 354 356 328 316 317 319 314 310 310 311 312 316 330 346 354 329 317 317 312 312 311 311 310 310 309 309 310 309 318 337 338 341 342 343 344 345 344 345 346 347 349 349 349 349 348 347 345 343 343 344 346 345 346 346 345 344 344 346 345 344 342 339 339 339 338 338 337 337 336 335
320 321 322 325 329 330 329 327 327 327 329 333 337 341 348 352 352 353 347 314 310 312 312 309 308 309 310 309 313 323 328 324 314 309 309 310 308 308 308 307 308 306 308 327 340 341 341 342 344 345 345 344 346 347 348 348 349 350 350 349 348 347 346 346 345 346 345 346 342 343 344 343 340 340 338 339 337 337 337 337 337 336 336 334 334
319 321 322 325 326 325 324 324 325 327 328 331 334 338 341 347 353 353 353 353 349 327 312 306 304 305 305 307 309 309 311 315 313 311 307 308 308 307 307 314 303 302 315 336 338 341 343 341 342 344 346 346 347 347 347 348 349 350 350 350 349 350 348 347 345 343 343 342 340 340 341 341 338 338 338 339 339 339 338 336 336 334 334 334 333
318 322 325 325 323 321 321 323 324 326 328 330 333 335 338 341 344 349 352 352 351 352 353 350 319 305 323 316 307 306 306 306 307 308 309 307 307 304 307 325 323 320 319 328 338 341 342 342 342 343 345 346 346 347 347 349 350 349 349 349 350 350 348 344 343 343 339 340 339 340 338 338 340 338 338 337 337 336 336 335 335 335 335 334 333
316 317 318 319 318 318 319 320 322 323 326 328 330 332 336 338 340 342 344 349 350 351 351 353 354 325 308 308 310 308 304 303 305 304 305 306 304 308 332 335 335 332 327 328 333 338 341 343 343 344 346 346 348 348 349 349 350 351 351 351 348 350 350 344 337 336 336 338 338 338 335 338 339 337 338 338 338 337 337 335 334 333 334 333 332
315 315 316 317 318 317 318 319 320 322 324 325 328 332 336 337 339 340 341 343 346 349 351 352 348 344 328 329 320 308 303 303 303 303 303 305 302 322 343 343 341 340 333 332 333 337 340 343 345 346 347 346 347 349 350 350 351 351 342 350 351 349 345 342 340 338 337 337 338 338 337 337 338 337 337 335 336 337 337 336 335 332 331 329 326
314 314 315 316 317 317 316 317 319 321 322 324 326 329 332 334 335 337 338 339 341 343 346 349 343 349 350 350 337 333 320 305 303 306 303 301 307 323 337 346 346 344 340 339 337 338 340 343 345 346 347 348 348 349 350 350 350 350 349 348 348 347 336 340 338 341 339 338 338 337 335 336 336 336 335 336 335 336 335 333 333 332 330 327 328
313 314 314 315 316 315 315 317 319 319 319 320 322 324 326 329 331 334 336 338 339 341 343 346 348 347 349 350 338 333 327 331 332 335 330 326 324 327 333 340 343 345 345 343 340 339 341 342 343 345 346 347 347 349 349 349 349 348 347 346 344 343 340 340 340 340 339 338 337 336 335 335 335 335 335 336 334 333 332 331 331 330 329 327 328
312 313 314 315 315 314 315 317 317 316 316 316 317 320 322 325 327 330 332 335 337 339 341 342 344 347 348 345 335 332 336 339 339 341 343 337 330 330 332 335 337 340 343 343 341 341 341 343 344 344 345 346 347 348 348 347 346 344 343 343 343 342 340 340 339 338 339 339 337 335 334 334 334 333 333 334 334 333 331 331 330 330 329 328 329
311 312 316 314 313 313 315 315 314 314 314 314 315 316 317 319 320 323 326 330 334 337 339 340 342 345 343 332 321 319 339 343 345 344 339 336 335 334 332 333 335 338 340 341 341 341 342 342 343 343 345 346 347 345 343 344 342 341 342 342 342 340 339 338 339 338 338 336 336 334 334 334 333 332 331 330 325 327 328 328 329 329 329 329 330
311 311 312 312 313 313 313 312 312 312 312 313 313 314 315 316 318 320 323 327 329 333 336 338 340 342 329 317 312 307 328 337 335 333 333 334 335 335 334 331 327 332 336 338 340 339 338 337 335 336 336 333 336 341 341 342 341 342 342 341 340 338 336 336 335 335 335 333 333 333 332 331 330 330 329 323 329 329 329 328 329 328 329 329 329
312 312 312 312 311 310 311 310 310 310 310 311 311 312 313 313 313 315 317 321 325 328 332 335 338 336 329 314 313 306 324 332 334 336 336 332 329 321 317 315 315 317 318 319 320 325 324 318 314 311 310 310 313 321 332 338 339 340 340 337 336 335 334 331 330 330 329 329 327 327 328 328 327 327 326 326 326 326 327 327 325 325 325 327 325
311 311 311 310 310 309 310 309 309 309 309 310 310 310 311 310 311 311 312 314 317 321 325 329 332 328 323 315 312 318 329 329 325 319 316 313 311 309 307 307 308 308 309 311 313 313 313 311 306 304 306 306 307 309 310 313 323 332 332 329 326 324 324 323 324 324 324 323 322 323 324 324 324 324 323 322 323 323 322 323 322 323 322 322 321
309 309 309 308 308 308 307 308 308 307 308 308 307 307 308 308 308 309 310 310 312 313 314 316 319 322 322 322 322 320 316 314 313 310 308 306 305 305 305 305 305 304 304 305 306 307 308 306 304 304 303 303 304 305 306 307 309 313 319 322 321 320 319 318 318 320 321 320 320 319 319 319 320 320 320 321 321 320 319 319 318 317 316 316 316
308 308 308 307 307 307 307 306 307 306 306 306 305 305 306 306 306 307 307 307 307 306 307 308 309 309 309 308 308 307 306 305 304 304 303 302 302 302 302 302 303 302 303 303 304 304 304 303 303 303 302 302 302 303 304 304 306 307 308 310 311 312 313 315 317 318 318 318 317 317 316 317 318 318 318 317 317 317 317 316 316 316 315 314 313
307 307 307 306 305 306 306 306 305 305 304 305 304 304 304 304 305 305 305 305 305 304 302 302 302 302 302 302 301 301 302 301 301 301 300 300 300 300 300 300 300 300 301 301 302 302 302 303 303 303 303 303 303 304 303 304 305 306 308 310 311 312 312 313 315 315 316 317 317 316 316 316 315 315 315 315 315 314 314 314 314 314 314 313 314
306 306 306 306 305 304 304 304 304 304 303 304 304 303 303 303 302 302 302 302 302 302 301 301 300 300 300 300 300 300 300 299 299 299 299 299 299 299 299 299 299 299 299 299 299 300 300 300 301 301 301 302 302 301 301 302 303 304 305 306 307 307 306 305 309 309 310 311 312 312 312 311 312 312 312 313 313 313 313 312 313 314 314 313 313
305 305 305 305 304 303 303 303 303 302 302 302 302 302 302 301 301 300 300 300 299 299 298 299 299 299 299 299 299 298 299 299 298 298 298 298 298 298 299 299 299 298 298 297 298 298 298 299 299 299 298 298 299 300 300 300 301 301 302 301 300 297 296 300 303 306 304 308 308 309 308 308 308 308 308 308 308 309 310 311 311 311 310 309 309
304 304 304 304 303 303 303 303 302 302 302 302 301 301 301 300 300 300 299 299 298 298 297 298 298 297 298 298 297 297 297 296 296 296 296 296 296 296 296 296 296 296 296 296 296 297 297 297 298 298 298 297 297 297 297 298 298 298 299 298 295 293 293 295 297 300 305 306 307 307 307 306 306 306 307 308 309 309 309 309 309 307 307 307 307
304 303 303 303 302 303 302 301 301 301 302 301 301 300 300 299 299 299 298 297 297 296 297 296 296 296 297 297 297 297 296 295 295 294 294 294 294 294 294 294 294 293 293 293 294 294 294 295 296 297 297 297 296 296 295 295 295 295 294 293 292 292 294 297 300 296 299 301 306 306 305 305 304 305 306 306 307 307 307 306 306 305 305 305 304
Wind_Speed
14 13 12 12 13 13 13 11 12 10 10 9 9 9 8 7 8 8 5 7 7 8 8 8 8 8 7 7 7 7 7 6 5 5 5 5 4 5 4 4 5 5 4 4 3 3 4 4 4 3 3 3 3 1 1 1 1 2 2 2 2 2 3 3 3 5 4 2 2 3 3 3 4 0 5 5 6 7 7 4 5 5 5 4 5
14 13 11 11 13 13 13 12 12 10 11 10 11 10 9 8 8 6 8 7 7 8 9 7 7 7 7 7 7 6 6 6 5 5 6 5 5 4 5 5 5 5 4 5 4 3 4 5 5 3 3 4 3 2 2 1 2 2 3 3 3 3 3 3 3 2 7 2 4 2 3 1 3 1 3 6 6 6 7 7 5 4 4 4 4
14 13 12 12 13 13 12 11 11 12 12 11 11 11 9 9 8 8 8 7 7 7 8 8 7 7 7 7 7 7 7 7 6 6 6 7 7 6 6 6 6 6 6 6 5 4 4 4 5 4 2 3 4 3 2 3 2 3 3 2 4 3 3 4 3 3 5 6 2 3 2 1 2 5 4 3 4 3 5 6 6 5 4 4 3
14 13 12 13 13 12 12 11 12 12 12 12 13 12 11 9 8 9 9 7 7 7 7 7 7 7 8 7 7 8 7 7 7 7 8 7 7 7 7 7 7 7 7 6 5 5 5 5 6 5 4 5 5 4 3 3 3 3 4 3 3 4 3 3 5 4 2 5 3 3 3 4 3 2 3 4 4 4 3 5 5 5 4 3 3
13 14 14 14 13 13 13 12 12 13 13 11 12 11 11 9 8 10 9 9 8 8 7 7 7 7 8 9 8 8 9 8 8 7 7 7 7 7 7 7 7 8 7 7 6 7 7 7 6 5 5 6 5 5 3 5 4 3 4 3 4 3 2 3 4 3 4 5 5 2 1 2 3 3 2 3 3 3 3 4 5 5 4 2 2
14 14 14 14 13 14 13 13 13 14 14 12 12 12 11 11 10 9 9 10 9 8 9 7 8 9 9 9 9 9 9 8 9 9 8 7 7 6 7 7 7 7 8 8 7 7 7 7 6 6 6 7 6 5 5 6 4 4 5 4 3 3 3 3 3 4 4 5 4 5 2 3 3 3 3 1 3 4 4 3 4 2 3 4 4
14 14 14 15 13 13 14 14 13 13 13 13 11 11 11 10 10 11 10 10 10 8 8 9 9 10 10 10 9 10 10 9 9 9 9 8 8 8 7 7 7 7 7 8 8 8 8 7 7 7 7 7 7 7 6 5 4 5 5 5 4 4 4 4 3 4 4 4 4 4 4 2 3 5 3 1 3 3 3 3 3 2 1 1 3
13 14 13 13 13 14 14 13 13 13 11 10 11 11 11 11 11 10 9 10 10 10 10 10 9 9 10 10 11 9 10 9 9 9 9 8 8 8 8 8 8 8 8 7 8 8 8 8 8 7 8 7 7 6 6 6 4 5 4 4 4 4 4 4 4 4 4 4 5 5 3 3 3 3 3 2 3 1 1 1 3 3 3 2 1
14 14 14 14 14 13 12 11 11 11 11 10 11 11 11 11 10 10 9 10 9 10 10 10 10 10 10 10 10 9 9 10 9 9 9 9 9 9 9 9 8 8 8 8 7 7 7 8 8 8 8 10 10 8 7 6 5 6 5 5 5 5 5 4 4 4 4 4 5 3 4 4 4 4 4 3 4 4 1 0 3 3 3 3 2
13 13 14 14 13 12 12 11 11 11 11 12 11 11 11 10 10 11 11 11 10 10 9 10 9 10 10 10 10 9 9 8 11 16 14 11 10 9 8 9 9 8 8 7 7 8 8 8 8 12 12 13 12 12 12 12 12 9 6 6 6 5 5 5 5 5 5 5 5 4 5 5 5 4 4 5 3 1 2 2 2 1 2 3 2
13 13 14 12 12 11 11 11 11 12 12 11 10 11 12 10 10 11 11 11 11 10 10 10 10 10 11 10 10 9 8 9 16 17 18 18 12 9 9 9 9 8 8 8 8 8 8 8 7 10 11 11 11 14 13 13 13 14 13 11 8 8 6 6 6 5 5 6 5 4 5 6 6 4 5 5 3 3 3 2 2 2 3 3 4
14 14 14 12 12 12 12 11 11 12 11 12 12 11 11 11 11 11 11 11 11 10 11 11 11 11 10 10 10 9 10 13 17 18 18 19 17 11 8 8 7 8 8 8 8 7 7 7 7 6 6 8 8 8 10 13 14 14 15 14 13 13 12 9 8 5 5 6 5 6 5 6 6 4 5 3 5 3 3 3 3 3 4 4 2
13 13 13 13 13 12 11 11 12 11 12 12 11 10 10 11 11 11 13 12 10 10 12 12 11 11 11 12 11 12 11 14 17 19 19 19 20 15 8 8 8 8 9 9 8 7 7 6 6 6 7 13 10 8 7 8 11 15 15 15 14 15 14 14 13 10 5 5 6 6 7 5 6 7 6 4 2 4 2 2 2 3 4 3 3
12 13 13 13 13 13 13 13 13 13 12 11 11 11 11 12 12 11 11 10 11 12 12 12 12 11 12 12 12 11 11 14 18 19 19 19 19 16 10 9 9 9 10 8 8 8 8 7 7 7 6 7 7 7 7 8 7 7 7 7 7 10 13 15 15 15 12 7 6 8 8 6 8 10 6 5 4 5 4 4 3 3 3 4 2
11 12 13 13 12 12 13 14 14 14 13 13 12 12 12 11 11 11 9 11 12 12 12 12 12 12 12 11 11 11 11 17 17 19 19 20 20 15 11 9 9 9 9 9 10 9 9 8 8 8 8 7 7 9 8 8 7 6 7 7 7 7 7 7 8 7 7 7 9 10 10 7 8 9 5 4 6 5 5 4 3 3 1 1 1
8 11 12 12 13 14 14 14 13 13 13 13 13 13 11 11 10 10 10 10 10 10 10 11 12 13 13 13 11 13 12 17 18 19 20 19 19 10 9 11 11 9 10 10 10 10 9 9 9 9 10 9 10 14 12 8 7 8 8 7 7 6 7 9 10 9 8 8 8 9 9 9 9 9 6 5 5 3 1 1 1 1 1 3 5
4 2 4 8 12 13 13 14 13 13 12 13 14 15 15 15 12 7 7 9 9 10 12 11 11 11 12 13 14 14 14 16 18 19 19 20 13 8 9 9 10 10 11 10 10 10 10 10 10 8 9 10 11 14 14 12 7 8 8 8 6 7 7 6 10 13 14 13 14 14 15 14 13 12 10 8 6 3 3 2 5 4 4 6 6
3 1 2 1 2 6 10 12 13 13 13 14 14 13 14 14 15 14 13 10 11 11 11 11 11 11 13 13 14 13 13 15 17 18 19 18 16 11 9 9 9 10 11 11 10 10 11 16 13 10 10 11 13 14 15 12 8 8 8 8 8 7 8 6 3 6 11 13 14 15 14 13 13 12 10 10 8 6 6 7 5 5 6 6 7
8 8 5 3 5 5 5 8 11 12 13 13 12 11 11 11 11 12 15 15 15 13 12 11 10 10 12 12 16 16 13 14 16 18 19 19 17 11 11 8 9 9 9 10 10 10 10 11 16 15 13 13 15 14 15 12 9 9 8 8 8 9 9 7 5 5 5 5 6 6 7 9 9 7 8 10 11 10 8 8 4 5 5 6 7
10 7 7 5 3 4 5 8 9 10 12 12 11 11 10 8 9 11 11 12 12 13 14 11 12 11 11 12 12 12 13 13 13 19 19 20 21 13 10 10 9 10 10 10 9 9 10 10 11 16 17 17 16 16 15 16 11 8 7 8 8 10 9 7 7 7 7 7 7 7 8 6 4 5 4 5 7 10 8 8 7 6 6 7 8
8 7 6 6 5 4 6 6 8 8 9 11 11 11 11 12 12 12 11 11 12 13 14 13 12 13 12 12 12 12 12 13 14 18 19 20 21 18 10 13 11 11 10 10 8 9 9 9 8 13 17 18 18 18 16 16 15 10 9 9 10 13 9 6 8 11 8 7 7 6 5 4 4 4 4 4 5 7 8 9 7 7 7 7 8
8 8 8 7 7 5 5 6 9 9 10 10 11 13 12 13 12 13 11 11 14 15 14 13 13 12 12 12 12 13 13 17 13 15 19 20 21 23 14 13 13 11 11 11 9 9 10 10 10 13 17 18 18 18 17 15 16 11 12 15 15 14 12 9 5 4 5 5 5 5 4 4 4 4 4 5 5 6 7 8 9 9 8 8 8
9 9 9 8 7 7 6 7 7 8 10 13 14 14 13 13 13 12 12 12 13 14 14 13 12 12 12 11 11 11 11 12 18 15 17 20 21 23 24 17 17 13 11 12 11 11 10 10 11 14 16 17 18 18 17 18 12 12 18 15 15 16 10 5 5 5 5 6 6 6 5 5 5 5 5 5 6 6 6 6 7 9 8 7 6
9 9 9 9 8 8 7 8 8 8 10 12 14 15 13 13 12 12 12 12 12 12 12 11 12 11 12 11 11 10 10 11 13 19 16 20 21 24 24 23 18 14 13 11 11 9 11 11 11 15 16 17 18 18 18 15 12 17 17 16 16 11 4 5 5 7 7 6 6 6 7 5 5 5 6 6 6 6 6 6 7 8 8 8 9
10 9 8 8 8 8 8 7 8 9 9 10 12 14 15 13 12 12 11 12 12 12 12 11 12 12 12 12 12 10 10 10 10 14 20 19 22 23 23 24 21 20 15 12 12 11 13 16 16 16 16 16 18 17 12 11 14 14 15 17 15 4 6 6 7 6 7 8 8 7 7 7 7 8 6 5 5 4 4 5 7 8 8 7 7
9 9 9 8 8 9 10 11 10 9 10 9 11 12 13 12 12 11 11 12 12 12 12 11 12 12 12 12 11 10 10 10 12 10 11 16 16 21 23 23 23 22 21 16 17 18 17 17 17 17 15 13 9 6 8 11 15 17 16 12 6 6 7 7 7 9 10 9 8 8 8 6 6 6 6 6 7 8 7 7 7 8 7 6 5
9 9 9 9 9 8 9 9 10 10 9 9 10 10 11 11 12 11 11 11 11 12 13 11 11 11 12 11 10 9 10 11 10 10 9 8 8 10 12 13 18 18 14 12 12 11 13 10 8 10 9 11 12 11 9 8 6 6 6 8 8 7 8 7 9 9 9 8 8 7 7 5 3 5 7 8 9 10 9 7 5 5 6 7 6
8 9 10 8 6 7 9 12 12 10 10 9 9 10 11 11 11 12 12 13 12 13 12 12 13 13 11 11 11 10 11 11 10 11 10 8 9 9 10 9 9 9 10 10 9 10 8 8 6 4 4 4 5 5 6 5 7 6 6 7 7 8 8 9 8 7 8 7 7 6 5 4 6 8 6 8 8 4 3 2 4 4 4 5 5
9 9 8 7 6 5 7 9 10 10 10 10 9 10 10 11 12 12 12 12 12 12 12 13 14 13 12 12 11 12 11 11 12 12 14 16 14 10 9 9 9 9 15 17 9 6 8 7 5 5 6 7 6 6 5 5 6 7 7 6 6 6 6 6 8 8 8 7 8 7 8 7 8 7 8 6 4 4 4 3 2 3 3 4 6
10 8 8 7 6 7 9 10 11 10 10 10 10 9 11 14 11 11 11 14 19 19 16 14 13 11 10 11 12 13 12 14 17 18 19 18 19 20 18 17 17 15 16 17 12 8 8 8 8 8 8 7 8 7 7 7 7 7 7 7 6 6 7 7 8 8 8 9 9 9 9 8 9 7 8 8 6 4 4 4 4 4 5 6 7
8 7 9 9 9 8 8 10 11 10 10 9 9 9 8 9 13 16 16 13 15 19 18 19 14 11 12 11 11 17 18 14 11 14 16 17 19 19 18 18 18 19 13 10 6 8 8 10 9 8 9 8 8 9 7 8 8 8 7 6 6 8 8 7 8 8 9 9 9 10 8 9 10 9 8 9 9 7 6 6 6 7 9 8 8
9 8 8 7 8 8 7 8 9 10 10 9 10 10 8 8 9 13 15 12 7 7 12 15 16 15 15 14 11 9 14 16 14 15 17 18 19 19 19 19 19 18 16 19 11 10 10 9 9 9 8 9 9 8 8 9 8 7 7 6 7 8 8 9 11 9 10 9 9 9 8 10 10 9 8 8 9 9 8 7 8 8 9 8 9
10 9 9 9 8 7 7 7 7 6 8 10 10 8 9 8 9 10 8 4 8 10 11 13 17 18 18 16 17 16 14 14 17 15 16 18 18 19 20 19 20 17 14 10 11 9 8 9 8 8 8 8 8 9 9 10 9 7 8 8 8 9 10 10 8 8 9 9 8 9 9 8 6 6 8 8 8 6 6 7 7 8 8 10 9
11 10 9 9 8 6 7 8 6 5 6 8 9 9 9 9 8 8 8 7 7 8 9 12 13 12 15 16 17 17 17 15 17 18 17 18 18 19 17 10 6 13 17 13 11 10 8 8 9 9 8 8 10 10 10 9 8 9 8 9 9 8 8 7 7 9 8 6 6 7 8 7 6 9 10 10 9 8 9 9 8 8 9 8 8
9 12 17 12 7 8 8 7 7 7 5 6 7 9 11 10 9 7 7 8 9 10 10 10 12 15 15 14 17 18 16 13 13 17 19 17 17 13 12 8 6 4 6 7 8 8 8 9 8 10 10 11 11 11 10 8 8 8 9 9 9 8 7 8 7 4 5 2 7 8 8 8 8 10 9 7 7 10 11 10 10 8 8 8 7
10 9 9 10 9 8 8 9 8 8 8 7 6 7 9 10 9 9 8 7 7 8 9 8 5 6 14 15 14 13 14 13 14 14 15 16 13 19 10 7 7 8 8 8 9 11 10 10 11 11 10 11 10 8 7 8 8 8 8 10 11 10 8 8 9 9 11 10 7 8 7 8 10 10 8 9 10 9 8 8 8 8 9 9 7
10 9 8 8 9 8 8 8 8 9 9 9 7 6 6 8 9 8 8 8 8 7 8 7 4 4 3 6 10 10 11 12 12 9 7 6 15 14 11 10 9 7 8 9 9 9 9 9 9 10 10 11 10 9 8 9 9 10 11 12 10 8 9 9 9 8 9 8 8 9 10 10 9 9 9 9 8 7 7 9 9 9 9 9 9
9 9 8 9 9 9 8 8 8 10 9 7 6 6 5 5 7 8 8 8 8 8 8 8 6 8 10 9 7 6 4 3 6 4 5 7 8 8 10 10 10 10 10 9 10 10 10 10 10 10 12 10 10 9 9 9 9 10 10 9 8 8 9 9 10 9 8 7 7 7 8 7 7 9 10 10 10 9 8 9 9 9 9 10 9
9 11 13 16 13 9 8 7 7 7 7 8 7 6 6 5 5 6 6 7 7 8 8 8 7 8 9 6 5 6 7 5 8 9 9 8 8 7 8 10 8 8 9 10 11 11 11 11 10 11 11 10 9 9 9 9 8 8 8 8 8 7 7 6 7 8 7 7 8 8 7 7 8 9 10 9 8 9 9 10 10 8 8 7 8
8 8 8 12 9 9 8 7 6 6 7 7 7 7 7 6 5 5 6 6 7 6 7 7 8 7 7 4 5 6 8 10 10 9 10 8 4 4 6 8 10 13 12 9 10 11 11 10 10 11 12 10 9 8 7 8 8 8 8 8 8 7 8 9 9 9 9 7 7 6 6 7 8 7 7 7 7 7 7 5 4 7 10 10 8
7 8 9 7 9 9 7 6 5 6 6 7 7 7 7 7 7 7 6 7 6 6 6 7 7 7 5 4 6 11 9 10 8 5 1 6 4 9 10 9 7 10 10 9 10 9 9 9 9 10 8 7 6 7 8 8 7 8 9 10 9 9 8 8 7 7 7 6 6 6 6 6 6 6 7 4 5 7 6 8 8 7 6 6 7
6 7 7 7 8 7 6 5 5 6 6 7 7 7 8 8 8 7 7 7 7 7 6 6 6 6 6 8 9 13 9 4 1 4 6 9 10 9 8 8 7 10 11 11 11 9 8 8 7 5 4 4 5 7 8 9 9 9 10 8 8 8 8 6 6 6 6 6 5 6 5 6 6 5 5 5 6 6 6 6 6 7 7 6 5
6 7 7 8 7 7 6 5 5 5 5 6 7 7 8 8 8 8 8 7 6 7 6 6 6 5 5 5 8 10 7 7 7 7 5 6 6 3 2 1 1 2 1 1 0 3 5 6 5 3 4 3 1 2 4 6 8 9 8 7 7 7 6 5 7 7 7 8 7 7 6 6 6 5 5 5 4 5 5 5 5 5 5 6 6
5 6 7 7 7 7 6 5 5 5 5 7 8 7 7 7 7 7 7 7 7 6 5 5 5 5 5 4 5 5 5 6 4 2 4 5 4 3 3 2 2 2 3 3 2 3 5 7 6 6 5 3 3 4 3 2 2 4 6 5 3 5 6 6 7 7 7 8 8 7 6 5 5 4 4 5 4 5 4 4 4 4 5 5 5
4 5 5 6 6 6 6 6 5 6 6 6 6 6 7 7 7 7 6 6 7 7 7 7 7 5 4 3 2 2 3 3 5 6 5 5 5 5 4 4 4 4 4 5 5 5 5 6 7 7 7 6 5 6 6 5 5 5 3 7 8 7 6 5 4 5 7 10 9 9 7 5 4 3 4 5 4 4 4 5 5 6 5 5 5
4 4 5 5 5 5 4 4 6 6 7 6 6 6 7 7 7 7 7 7 8 8 8 9 9 10 9 9 9 9 8 8 7 7 7 6 6 6 5 5 5 6 6 7 6 7 8 8 8 8 8 7 7 7 6 7 7 7 7 7 9 8 7 7 7 8 8 10 9 9 8 6 5 3 4 5 4 4 4 5 5 4 5 6 6
4 4 4 5 5 5 5 5 5 6 6 6 6 6 6 6 6 7 8 9 8 9 10 10 10 10 10 10 10 10 9 9 9 9 9 9 8 8 7 8 9 9 7 8 9 8 9 9 8 8 7 5 7 8 8 7 6 4 4 7 8 9 7 6 8 9 10 10 9 9 8 8 6 5 6 6 5 5 5 5 5 7 5 5 5
4 4 4 5 5 5 5 5 6 8 8 8 7 7 7 6 6 7 6 8 9 9 8 8 8 8 9 9 9 9 9 9 9 10 11 9 8 8 8 8 9 8 9 9 9 9 9 10 9 8 9 8 8 9 9 9 8 7 7 8 5 6 13 13 11 12 11 11 10 9 9 8 7 7 4 5 6 5 6 5 5 5 5 5 4
3 3 4 4 4 5 5 6 6 6 7 7 7 7 7 7 7 6 6 8 8 9 9 9 9 9 9 9 10 10 10 11 9 9 9 9 9 9 9 8 8 7 8 9 9 10 10 10 10 9 11 10 8 9 10 10 10 9 9 8 8 10 13 17 14 14 16 14 11 10 9 8 8 6 7 7 7 6 5 5 5 6 5 5 5
4 4 4 5 5 5 5 6 6 6 7 7 7 6 7 7 6 7 7 7 8 9 9 9 9 9 9 9 9 10 9 10 10 9 10 10 10 10 10 10 9 8 8 9 9 10 10 11 10 10 12 12 10 10 11 11 10 9 8 8 13 15 17 20 20 19 14 10 11 10 9 9 8 8 8 8 8 9 9 7 6 5 5 5 5
4 5 5 5 5 5 5 5 5 6 6 6 6 6 6 6 7 6 7 9 8 9 9 10 10 10 9 9 9 8 9 10 10 11 10 11 12 12 11 9 9 9 10 10 10 10 10 11 10 11 12 13 13 12 12 12 10 10 13 16 16 16 17 17 15 17 19 13 12 12 11 11 10 9 8 7 6 6 7 7 7 7 6 5 4
Wind_Direction
195 200 194 199 197 198 200 200 203 200 196 189 192 198 197 199 204 208 185 195 185 186 195 199 197 201 197 200 200 203 204 200 190 182 184 190 191 193 191 195 216 230 227 237 210 195 204 219 224 218 183 213 240 247 242 202 171 180 163 162 171 166 160 154 238 276 283 222 258 278 305 314 308 316 314 322 334 337 335 319 329 324 323 326 330
196 197 197 199 199 200 201 200 201 199 199 196 200 198 194 196 197 190 197 205 186 192 198 198 197 196 197 205 207 207 207 206 190 184 192 192 193 184 186 188 206 228 213 236 228 209 209 232 243 212 187 213 220 229 244 210 186 198 197 187 196 191 193 176 218 248 289 295 283 262 274 168 286 243 313 326 324 330 324 321 322 325 322 325 342
195 193 194 196 202 203 201 200 198 200 201 202 205 203 199 197 184 188 199 199 192 196 200 200 196 193 199 202 204 207 210 207 195 195 207 203 198 195 192 186 197 207 213 217 215 204 214 220 245 234 191 217 217 226 206 224 201 212 222 188 206 207 184 200 179 250 276 288 267 299 272 304 268 303 320 299 288 291 298 314 326 323 333 329 353
193 194 195 200 200 199 201 202 199 201 203 205 207 207 204 200 187 191 192 185 185 197 196 199 194 193 200 202 202 208 206 207 199 203 208 205 207 206 193 196 200 208 214 214 207 202 212 220 232 221 211 221 227 220 214 209 204 205 219 210 208 216 195 177 212 220 253 284 269 256 300 316 283 266 263 277 291 308 307 306 308 316 328 340 1
191 194 195 199 198 200 203 201 201 203 206 206 208 205 205 200 196 197 187 186 188 183 189 187 193 194 200 201 204 205 209 204 206 208 211 209 211 209 206 204 204 208 211 212 213 204 211 221 222 208 204 222 227 221 212 215 211 203 216 210 207 209 189 195 203 197 222 258 278 253 272 271 260 281 268 298 311 307 312 315 315 314 326 324 1
194 193 196 198 200 200 202 202 204 205 206 207 207 205 204 203 199 201 195 196 189 184 186 181 192 200 204 205 204 208 207 205 210 214 211 207 210 210 210 212 214 209 208 209 210 206 218 220 215 201 206 215 227 223 207 217 202 213 218 214 209 198 207 209 198 206 217 242 256 289 253 281 299 276 284 283 299 310 310 321 312 329 350 349 15
191 194 196 200 200 202 201 203 204 206 206 208 207 205 204 203 201 203 199 200 195 189 187 189 196 198 204 202 203 206 206 205 209 214 215 213 212 211 209 212 216 216 214 212 208 209 214 217 211 201 208 214 222 222 217 214 208 219 214 216 203 200 218 216 204 211 219 239 250 241 269 249 235 280 265 252 272 253 284 317 318 305 283 351 343
192 195 196 200 202 204 204 202 204 206 207 206 207 207 207 207 208 207 202 203 203 201 194 194 197 198 204 203 207 204 205 204 207 211 213 211 209 213 212 211 213 216 221 217 212 210 212 215 214 208 210 212 214 219 208 221 208 230 218 208 201 205 222 217 215 218 226 229 237 256 237 266 264 240 266 294 293 284 151 227 300 305 310 319 289
193 194 196 200 204 204 202 202 203 203 204 203 206 208 207 208 207 206 205 208 208 209 206 200 196 201 206 207 208 204 203 206 205 206 207 210 211 214 215 214 214 216 220 221 217 216 215 216 216 215 213 220 214 214 206 203 201 220 220 193 204 209 219 226 225 225 234 236 251 230 254 260 256 279 292 275 248 279 212 233 272 266 269 294 297
192 195 199 203 203 200 200 200 201 200 201 202 204 205 207 207 206 208 209 209 210 208 208 205 201 200 203 207 208 205 208 208 208 205 204 206 208 213 216 218 218 218 218 217 219 218 220 219 221 222 221 226 226 224 221 217 216 218 222 183 202 202 212 221 222 219 228 237 243 246 255 258 255 235 254 250 266 272 267 235 260 239 249 262 275
193 195 201 201 199 197 197 201 199 200 203 203 202 203 205 204 206 209 211 210 211 209 205 206 207 205 204 202 206 207 209 211 208 204 206 208 206 210 212 217 216 216 217 216 220 216 219 222 225 229 229 226 228 227 227 221 219 223 226 218 203 198 207 215 226 216 218 231 239 233 239 263 262 235 243 266 252 246 264 274 271 296 298 320 310
193 196 198 196 195 195 198 198 199 203 201 204 203 203 202 203 207 209 210 212 212 209 210 211 210 209 208 207 208 209 214 213 206 205 205 207 207 209 207 212 209 213 214 217 221 218 218 217 221 219 217 223 225 226 226 227 224 223 226 228 227 222 219 217 228 227 217 230 237 235 240 244 265 232 245 240 253 241 236 239 242 257 275 267 250
194 196 197 194 195 194 194 195 200 201 203 204 204 200 202 206 209 210 213 213 209 209 215 212 213 212 212 212 214 214 218 212 207 206 206 206 207 209 212 210 209 212 212 215 219 221 219 217 220 213 221 221 224 224 223 228 225 226 227 230 232 230 232 235 233 235 231 226 234 248 229 240 252 249 211 220 149 232 177 217 234 239 243 252 252
192 195 194 195 194 193 193 194 197 201 200 201 200 202 202 208 210 211 215 212 212 215 215 215 214 212 214 215 218 219 219 215 206 206 206 206 206 205 218 210 212 215 217 213 216 220 220 219 217 222 211 213 216 215 213 222 222 217 220 219 224 233 231 228 233 237 237 236 233 242 249 195 240 256 238 161 177 226 209 244 205 249 231 240 262
193 193 194 196 194 195 195 196 199 198 197 196 197 202 205 210 211 211 210 212 214 215 215 214 215 214 215 215 218 221 222 216 206 205 206 204 205 200 215 216 217 220 220 218 221 220 221 219 221 227 226 209 204 204 209 214 216 220 223 225 225 230 224 221 213 209 211 219 231 236 248 235 237 252 251 172 215 225 213 245 232 226 277 83 241
210 192 194 195 197 197 196 199 201 202 199 195 194 196 199 205 214 217 220 222 221 220 221 219 217 216 215 215 217 225 225 215 208 206 204 205 198 194 205 217 219 221 222 223 221 224 224 222 223 225 233 229 215 206 211 209 210 222 226 232 236 234 234 230 227 218 210 205 212 224 234 238 237 243 242 215 216 208 178 139 118 124 226 274 273
34 356 235 212 202 198 197 197 199 200 198 199 200 197 193 193 196 177 230 243 234 225 223 219 219 216 214 215 218 224 228 218 207 206 204 201 186 191 204 213 220 222 227 223 224 223 222 222 220 222 228 234 224 205 210 208 214 218 225 233 236 243 247 236 219 224 227 225 225 228 236 244 248 249 249 231 219 172 159 186 227 190 221 257 264
360 141 132 81 268 225 205 199 199 198 197 203 209 214 209 200 184 179 188 215 242 242 234 231 223 219 217 217 215 220 226 221 205 206 204 193 185 192 200 204 215 221 228 228 226 227 226 221 217 222 227 234 229 211 207 201 217 220 224 232 240 243 250 241 204 218 222 229 234 237 243 250 253 255 247 228 208 185 183 216 204 166 227 234 253
351 353 334 243 192 193 206 209 203 201 203 206 204 211 222 221 204 185 189 192 208 231 236 235 230 224 221 220 219 220 226 224 205 205 203 191 189 199 199 200 210 217 219 228 227 228 231 228 225 225 226 231 229 221 208 195 211 217 217 225 234 241 245 247 214 217 202 216 234 230 247 241 241 235 237 215 190 203 211 225 200 197 222 238 241
331 322 330 321 264 219 207 207 211 210 211 212 206 207 207 219 226 209 200 198 203 207 224 227 228 226 221 221 220 217 224 228 211 204 200 192 190 194 199 201 210 214 217 220 226 226 229 233 227 226 227 229 229 223 214 200 210 218 210 219 225 238 245 237 213 214 232 226 240 221 231 230 213 215 221 193 192 208 214 219 221 212 223 241 241
317 320 312 310 309 266 220 216 222 221 217 214 212 214 210 209 213 215 205 204 205 210 214 219 222 228 223 222 222 219 221 224 221 201 201 191 192 193 199 208 210 212 214 219 220 223 225 225 226 221 219 225 229 228 219 207 211 218 215 222 222 235 241 228 229 222 227 223 232 233 230 216 212 210 209 203 204 211 215 222 220 212 210 228 233
315 317 312 307 300 287 270 234 216 218 221 218 217 218 215 209 211 212 209 205 207 211 213 217 222 225 227 225 223 224 220 218 224 209 199 193 191 195 203 210 205 205 214 222 220 224 227 224 226 221 214 219 225 228 222 212 212 215 227 226 231 234 240 238 239 230 231 236 232 228 218 209 215 208 208 210 206 203 206 212 217 217 213 215 210
314 314 310 304 298 290 282 269 250 223 214 217 219 223 215 210 210 210 210 209 209 212 214 215 219 225 228 226 224 222 221 219 217 217 199 194 193 198 206 210 199 202 210 220 219 225 223 225 228 220 212 216 222 226 223 215 210 220 230 232 232 235 238 249 245 244 239 240 239 243 235 223 217 211 202 210 212 205 206 206 214 220 223 227 228
308 304 301 298 297 295 291 288 276 259 231 215 218 224 220 211 207 205 207 209 211 213 216 214 219 224 226 228 225 220 217 221 213 214 206 195 196 199 206 213 198 204 210 223 221 218 222 222 224 218 213 213 218 223 224 212 209 220 226 233 237 237 225 234 234 236 243 244 239 238 239 226 218 220 216 208 212 200 200 210 214 208 209 216 220
302 296 293 298 301 301 298 288 279 272 260 232 217 217 219 211 207 206 203 209 211 215 217 212 216 220 223 225 225 220 216 216 221 210 208 199 200 201 205 208 212 207 212 223 223 220 221 218 218 218 216 215 217 223 228 222 218 225 224 227 230 199 207 212 225 225 237 238 233 231 235 229 220 227 218 199 184 157 177 198 202 206 205 209 209
299 299 302 304 306 306 303 300 287 274 265 249 231 219 216 209 210 205 203 210 211 215 216 215 219 220 225 226 223 220 215 218 223 214 203 206 204 205 204 206 212 212 216 222 217 220 220 216 215 218 221 221 213 197 213 220 211 216 223 224 212 212 205 204 213 223 232 229 226 228 229 221 215 207 195 175 175 197 188 186 184 192 180 170 169
298 298 300 305 309 311 305 297 301 299 285 261 239 228 216 211 210 206 205 207 212 216 219 215 220 220 225 226 222 217 217 220 220 219 200 194 190 197 208 217 218 219 224 237 233 228 232 228 221 217 223 213 211 220 224 222 196 195 202 204 208 202 202 200 206 212 225 229 233 230 225 220 188 184 195 203 213 217 203 199 174 171 178 188 188
299 296 294 297 302 312 309 301 299 297 292 276 246 228 217 211 208 207 202 207 208 215 215 215 218 218 220 217 218 216 219 220 217 215 206 187 196 187 192 191 188 187 210 221 219 226 230 221 206 193 194 196 207 208 214 207 211 202 200 196 202 203 209 214 225 236 239 233 235 231 218 187 205 215 208 208 218 211 87 162 183 167 171 152 182
304 294 295 297 301 322 310 304 299 296 296 293 262 236 222 212 214 214 215 210 207 208 208 215 217 218 216 215 212 220 223 222 222 206 206 199 192 190 181 195 193 200 214 213 201 215 230 223 201 201 199 207 207 213 209 203 214 216 212 200 197 197 197 193 206 214 219 217 223 212 209 201 218 213 214 212 195 160 151 147 187 165 164 178 196
303 305 307 301 328 334 319 307 300 295 296 300 295 263 239 228 216 217 224 216 216 216 211 216 215 211 215 218 211 212 212 218 218 199 202 198 198 198 201 194 197 201 207 198 195 199 207 220 213 209 209 208 215 217 214 205 214 216 215 211 199 192 198 202 211 216 216 219 222 222 216 204 210 208 206 199 187 171 158 168 184 180 175 195 204
307 314 315 323 334 323 310 303 300 300 300 303 300 286 266 254 242 231 227 221 214 220 222 230 236 225 214 225 220 222 230 235 216 200 200 200 201 204 202 195 195 205 182 127 177 203 209 214 215 213 217 214 216 219 216 213 217 220 219 198 200 209 208 205 212 212 217 219 223 226 212 198 206 205 199 196 189 184 175 185 187 184 200 196 199
309 313 313 300 296 291 297 301 308 311 312 311 306 305 281 256 253 248 240 238 250 238 234 236 236 235 235 227 221 229 229 227 212 196 199 200 202 203 202 199 199 194 179 171 182 202 206 209 208 210 205 213 217 222 222 219 217 213 217 215 213 204 205 211 212 203 211 212 215 225 208 199 205 206 205 200 192 196 192 184 189 190 198 198 201
305 306 300 293 286 289 291 284 285 294 302 304 304 307 296 263 248 255 253 217 221 227 227 224 225 230 231 234 227 221 217 209 210 202 201 203 201 203 202 199 198 184 153 176 210 205 202 208 213 209 205 211 212 215 220 221 221 214 215 220 221 219 215 218 197 208 211 207 186 220 225 216 202 228 215 203 195 196 191 200 195 194 190 195 196
303 297 292 290 295 293 295 292 284 283 290 295 299 295 294 289 270 253 247 238 252 257 248 240 239 238 240 234 232 234 233 217 203 202 202 204 201 202 195 187 149 167 179 194 195 213 194 204 210 211 206 209 219 221 224 220 215 222 225 228 232 229 215 192 192 209 208 182 188 228 251 245 215 219 213 208 202 205 205 203 194 189 191 191 189
298 299 306 310 308 306 300 297 292 287 285 295 303 307 303 302 301 287 250 240 235 233 239 235 214 204 220 230 234 236 235 232 219 209 206 204 202 177 124 119 147 183 231 249 218 212 211 206 207 211 210 212 216 217 218 210 206 211 222 224 226 220 200 188 192 145 91 168 207 211 218 237 230 228 220 202 203 208 209 200 200 195 194 193 190
306 304 308 311 312 310 310 309 304 299 299 299 298 293 298 299 299 297 298 287 264 255 263 251 261 213 222 237 241 233 225 223 226 223 218 208 169 137 172 192 184 196 199 202 205 210 211 214 211 213 209 217 216 211 203 206 207 207 210 216 219 210 199 169 153 159 187 198 174 174 198 216 220 221 218 210 210 211 202 195 193 190 196 196 185
308 307 309 309 311 310 310 308 304 304 303 299 290 289 299 299 293 293 290 290 280 275 261 262 265 280 196 233 227 220 208 213 225 233 234 191 172 181 204 193 193 186 190 199 202 213 214 218 215 215 213 217 216 210 211 212 208 210 217 219 212 192 186 178 169 169 181 192 197 195 198 208 205 215 211 203 210 209 203 200 197 192 192 177 167
302 305 312 313 312 313 313 310 309 311 311 305 302 300 293 292 296 292 287 277 278 274 269 258 236 240 245 248 151 182 157 152 134 130 125 124 160 208 219 219 208 202 201 201 203 209 213 215 212 215 219 214 212 205 210 214 209 214 217 219 199 198 177 177 178 183 187 195 197 200 200 199 193 207 210 202 195 205 205 193 189 188 186 176 181
299 302 304 301 308 313 312 313 319 326 323 319 313 308 296 290 283 285 282 280 272 267 268 270 254 241 241 232 145 151 133 186 203 215 197 197 195 194 208 217 217 221 220 210 205 207 214 214 211 216 221 215 209 204 204 212 208 210 207 198 192 182 170 177 190 201 199 204 205 208 198 186 179 203 209 202 189 190 191 185 182 167 171 190 191
302 305 302 307 315 312 312 316 326 329 328 324 319 316 311 305 302 294 292 290 280 267 264 260 263 258 254 202 152 162 196 215 222 223 221 197 193 231 238 217 207 225 225 218 209 208 208 212 207 213 219 214 204 203 194 191 187 188 189 197 198 186 191 195 196 193 205 200 200 200 193 179 178 193 203 200 188 166 164 156 127 166 182 181 193
305 306 312 316 307 308 308 322 330 334 332 328 320 318 311 312 307 301 290 278 273 271 258 257 257 262 264 246 196 191 212 224 240 239 65 103 206 227 218 221 201 236 239 232 227 213 206 203 207 216 222 209 184 165 171 166 164 174 192 199 198 202 199 196 189 190 182 176 177 180 179 167 167 175 189 159 148 164 168 149 178 180 178 188 183
309 307 313 314 310 306 308 328 335 338 339 336 334 324 319 317 313 307 294 282 276 266 260 255 253 242 236 206 201 196 214 244 93 145 183 198 218 230 226 218 197 205 212 213 218 208 194 188 185 188 188 141 153 171 165 174 181 192 201 200 198 202 203 184 162 159 166 161 154 157 157 154 155 161 151 156 172 164 158 170 166 178 189 189 180
313 310 314 313 315 310 315 328 341 348 350 351 347 336 330 327 323 318 310 306 297 293 286 264 246 229 219 209 208 191 199 216 231 232 219 203 205 173 137 135 157 237 229 169 230 129 136 123 103 86 90 97 87 140 199 193 192 202 203 208 207 202 186 148 144 154 150 141 141 135 129 132 138 144 148 167 165 155 162 158 168 177 170 166 162
318 315 312 315 315 316 322 339 1 5 0 1 360 352 345 338 332 330 332 325 317 311 303 293 272 210 196 186 177 178 203 204 209 123 87 76 95 105 104 92 80 50 39 39 63 100 124 123 115 102 95 78 73 68 63 28 255 198 169 141 135 140 136 149 165 162 149 131 116 108 109 115 129 139 143 145 142 143 136 144 147 147 148 150 149
316 319 316 318 318 321 329 352 16 18 17 15 14 5 359 353 342 346 353 354 356 2 3 4 9 7 22 30 36 69 50 38 59 62 70 72 82 78 86 81 82 81 73 72 73 83 85 92 101 92 82 70 50 58 56 51 54 54 76 132 137 136 127 113 121 127 117 108 102 100 97 100 104 107 116 119 117 127 128 139 140 137 127 138 148
320 329 325 329 326 329 342 356 22 31 29 28 20 15 7 1 2 1 2 9 18 19 17 22 26 34 36 42 43 48 49 48 48 56 63 67 73 75 70 71 62 62 60 72 71 71 77 79 85 90 93 95 99 91 86 80 79 85 99 113 123 131 131 133 130 111 101 102 107 106 107 99 97 96 115 121 113 106 109 109 108 97 104 105 95
331 340 354 351 342 344 351 9 32 46 41 38 33 23 17 10 10 15 21 29 29 31 34 33 36 40 41 45 48 49 49 55 59 58 57 54 51 50 52 61 68 67 59 58 59 65 72 70 63 69 70 68 79 81 72 64 53 36 59 112 119 112 104 95 94 98 94 94 100 105 107 112 115 113 109 106 106 106 99 97 101 110 104 103 107
349 5 9 12 4 1 10 13 32 44 48 44 41 33 30 26 22 21 22 29 34 36 38 41 43 43 47 46 46 50 52 54 57 60 55 44 37 36 42 59 73 81 87 84 79 75 72 73 72 66 62 45 47 67 69 66 61 54 25 1 5 105 121 121 106 94 87 88 88 98 104 103 98 94 86 98 99 104 100 96 88 88 90 96 90
6 17 28 25 23 16 14 25 37 41 47 46 45 44 42 39 35 34 35 40 41 42 44 46 47 47 50 53 54 54 57 57 50 52 51 46 42 38 27 29 55 65 72 75 78 79 78 73 72 74 73 64 39 48 60 64 60 53 47 42 26 48 84 92 96 97 98 100 96 95 91 93 98 98 89 80 75 70 66 63 77 82 77 73 78
29 32 44 44 37 23 23 32 40 40 49 57 55 52 51 50 45 45 44 47 48 48 49 49 52 50 53 55 56 58 56 54 51 51 52 52 45 37 33 28 19 25 43 59 58 62 69 72 70 68 70 71 60 48 52 57 55 49 51 60 61 62 64 70 72 82 88 88 92 91 92 88 85 79 74 79 83 86 86 86 82 71 73 73 68
41 48 51 48 42 34 33 30 38 47 49 52 56 56 52 54 54 50 57 58 56 55 54 54 53 50 48 52 58 57 60 62 58 56 55 55 51 47 41 30 21 24 40 53 59 55 55 59 61 63 64 66 62 50 50 51 50 46 44 45 48 53 57 64 71 73 78 81 84 87 83 82 80 80 79 82 81 78 85 86 77 78 75 70 73